Skip Page Navigation
NASA JPL Caltech
NASA Logo - Jet Propulsion Laboratory + View the NASA Portal
+ Center for Near-Earth Object Studies
JPL Home Earth Solar System Stars & Galaxies Technology
JPL Solar System Dynamics
BODIES ORBITS EPHEMERIDES TOOLS PHYSICAL DATA DISCOVERY FAQ SITE MAP
JPL Small-Body Database Browser
Search: [ help ]  
24745 (1992 QY)
Classification: Main-belt Asteroid          SPK-ID: 2024745
Ephemeris | Orbit Diagram | Orbital Elements | Mission Design | Physical Parameters | Discovery Circumstances | Close-Approach Data ]

[ show orbit diagram ]
Orbital Elements at Epoch 2459396.5 (2021-Jul-01.0) TDB
Reference: JPL 34 (heliocentric ecliptic J2000)
 Element Value Uncertainty (1-sigma)   Units 
e .2260198072647346 3.7254e-08  
a 3.043296438014761 1.4974e-08 au
q 2.355451163645211 1.115e-07 au
i 16.60885384769222 3.9801e-06 deg
node 157.6787140059706 1.2051e-05 deg
peri 244.5990473378016 1.4778e-05 deg
M 113.9966023348625 7.336e-06 deg
tp 2458782.449315201884
(2019-Oct-25.94931520)
3.9324e-05 TDB
period 1939.16522071393
5.31
1.4312e-05
3.918e-08
d
yr
n .1856468939080194 1.3702e-09 deg/d
Q 3.73114171238431 1.8358e-08 au
  Orbit Determination Parameters
   # obs. used (total)      1624  
   data-arc span      10532 days (28.84 yr)  
   first obs. used      1992-08-29  
   last obs. used      2021-06-30  
   planetary ephem.      DE441  
   SB-pert. ephem.      SB441-N16  
   condition code      0  
   norm. resid. RMS      .44522  
   source      ORB  
   producer      Otto Matic  
   solution date      2021-Jul-08 19:03:37  

Additional Information
 Earth MOID = 1.41383 au 
 Jupiter MOID = 1.96626 au 
 T_jup = 3.138 
[ show covariance matrix ]

Ephemeris | Orbit Diagram | Orbital Elements | Mission Design | Physical Parameters | Discovery Circumstances | Close-Approach Data ]

Physical Parameter Table
Parameter Symbol Value Units Sigma Reference Notes
absolute magnitude H 13.70   n/a E2021B10  
diameter diameter 10.214 km 0.119 urn:nasa:pds:neowise_diameters_albedos::2.0[mainbelt] (http://adsabs.harvard.edu/abs/2011ApJ...741...68M)  
geometric albedo albedo 0.074   0.008 urn:nasa:pds:neowise_diameters_albedos::2.0[mainbelt] (http://adsabs.harvard.edu/abs/2011ApJ...741...68M)  

24745 (1992 QY)          Discovered 1992-Aug-29 by Helin, E. F. at Palomar
Reference: 20010606/Numbers.arcLast Updated: 2004-04-19

[ show close-approach data ]
Alternate Designations
 1992 QY = 2000 GD97 
Ephemeris | Orbit Diagram | Orbital Elements | Mission Design | Physical Parameters | Discovery Circumstances | Close-Approach Data ]
ABOUT SSD CREDITS/AWARDS PRIVACY/COPYRIGHT GLOSSARY LINKS
FirstGov 2021-Jul-23 23:56 UT
(server date/time)  
NASA Home Page
Site Manager:   Ryan S. Park
Webmaster  Alan B. Chamberlin